Location: Unspecified
(0.0000°N, 0.0000°E)
Time: 17:08:49
(UTC+02:00)

GPS 2-12 Rocket1 - Visible Passes

Search period start: 22 September 2017 00:00
Search period end: 02 October 2017 00:00
Orbit: 587 x 653 km, 20.0° (Epoch: 22 September)

Date Brightness Start Highest point End Pass type
(mag) Time Alt. Az. Time Alt. Az. Time Alt. Az.
22 Sep 5.5 07:11:13 10° N 07:12:58 12° NNE 07:14:41 10° NE visible
22 Sep 3.6 21:00:12 10° SW 21:04:44 44° SSE 21:06:09 34° ESE visible
23 Sep 5.2 07:26:13 10° NNW 07:29:23 18° NNE 07:32:30 10° ENE visible
23 Sep 3.0 21:16:12 10° WSW 21:20:57 77° SSE 21:21:34 65° E visible
24 Sep 5.6 06:01:32 11° N 06:01:49 11° NNE 06:03:18 10° NNE visible
24 Sep 3.4 21:32:29 10° WSW 21:36:59 60° NNW 21:36:59 60° NNW visible
25 Sep 5.2 06:16:55 15° N 06:18:16 17° NNE 06:21:17 10° ENE visible
25 Sep 4.6 21:49:04 10° W 21:52:25 32° NW 21:52:25 32° NW visible
26 Sep 4.7 06:32:19 18° NNW 06:34:37 27° NNE 06:38:30 10° ENE visible
26 Sep 3.3 20:21:24 10° WSW 20:26:03 69° NNW 20:30:45 10° ENE visible
26 Sep 5.5 22:06:02 10° WNW 22:07:49 18° NW 22:07:49 18° NW visible
27 Sep 3.9 06:47:45 18° NW 06:50:53 45° NNE 06:55:17 10° E visible
27 Sep 4.1 20:37:56 10° W 20:42:16 39° NNW 20:46:11 13° NE visible
28 Sep 5.8 05:26:08 15° ENE 05:26:08 15° ENE 05:27:19 10° ENE visible
28 Sep 3.1 07:03:10 14° WNW 07:07:07 80° NNE 07:11:43 10° ESE visible
28 Sep 4.9 20:54:48 10° WNW 20:58:34 24° NNW 21:01:32 14° NNE visible
29 Sep 4.9 05:41:34 28° ENE 05:41:34 28° ENE 05:44:10 10° E visible
29 Sep 3.3 07:18:43 10° W 07:23:20 58° SSW 07:27:51 10° ESE visible
29 Sep 5.3 21:12:08 10° NW 21:14:55 16° NNW 21:16:51 13° N visible
30 Sep 3.7 05:56:58 53° E 05:56:58 53° E 06:00:40 10° ESE visible
30 Sep 5.6 21:30:31 10° NNW 21:31:24 10° NNW 21:32:07 10° N visible
01 Oct 3.1 06:12:20 66° S 06:12:20 66° S 06:16:52 10° ESE visible
